KAL2120 RJBB-RKSS

Flight info

Callsign KAL2120
Flight time N/A
Altitude 38000
Route MAIKO OSRIX GUMID SOUJA Y324 STAGE Y38 SAPRA Y685 KPO/N0457F300 Y685 CUN/N0426F260 Y685 GUKDO GUKDO2T
Aircraft A21N/M-SDE2E3FGHIRWXY/LB1

Departure

Time 2026-05-04 11:45
Airport Kansai International Airport (RJBB)

Arrival

Time N/A
Airport Gimpo International Airport (RKSS)
Time Latitude Longitude Altitude Speed Heading
2026-05-04 11:08 34.43674 135.24982 24 ft 0 kts 321°
2026-05-04 11:12 34.43674 135.24983 24 ft 0 kts 321°
2026-05-04 11:16 34.43673 135.24983 24 ft 0 kts 321°
2026-05-04 11:20 34.43673 135.24984 1 ft 0 kts 321°
2026-05-04 11:22 34.43666 135.24990 -2 ft 3 kts 320°
2026-05-04 11:23 34.43651 135.25006 28 ft 3 kts 315°
2026-05-04 11:23 34.43638 135.25024 29 ft 3 kts 307°
2026-05-04 11:24 34.43627 135.25077 28 ft 1 kts 230°
2026-05-04 11:28 34.43627 135.25078 28 ft 0 kts 230°
2026-05-04 11:28 34.43625 135.25074 30 ft 1 kts 231°
2026-05-04 11:28 34.43616 135.25062 30 ft 3 kts 231°
2026-05-04 11:29 34.43616 135.25061 30 ft 0 kts 231°
2026-05-04 11:29 34.43616 135.25062 30 ft 0 kts 231°
2026-05-04 11:33 34.43593 135.25025 28 ft 7 kts 232°
2026-05-04 11:33 34.43555 135.24969 25 ft 9 kts 230°
2026-05-04 11:33 34.43510 135.24900 24 ft 12 kts 230°
2026-05-04 11:34 34.43454 135.24819 24 ft 14 kts 230°
2026-05-04 11:34 34.43391 135.24726 24 ft 15 kts 231°
2026-05-04 11:34 34.43320 135.24620 24 ft 17 kts 231°
2026-05-04 11:34 34.43243 135.24502 24 ft 19 kts 231°
2026-05-04 11:35 34.43159 135.24373 24 ft 20 kts 232°
2026-05-04 11:35 34.43064 135.24240 24 ft 22 kts 229°
2026-05-04 11:35 34.42966 135.24094 24 ft 23 kts 231°
2026-05-04 11:35 34.42864 135.23936 25 ft 24 kts 231°
2026-05-04 11:36 34.42780 135.23808 24 ft 13 kts 238°
2026-05-04 11:36 34.42775 135.23792 24 ft 3 kts 250°
2026-05-04 11:36 34.42773 135.23787 27 ft 0 kts 253°
2026-05-04 11:36 34.42773 135.23786 27 ft 1 kts 257°
2026-05-04 11:37 34.42771 135.23747 24 ft 0 kts 275°
2026-05-04 11:37 34.42777 135.23738 27 ft 6 kts 323°
2026-05-04 11:37 34.42871 135.23668 25 ft 18 kts 322°
2026-05-04 11:37 34.42973 135.23571 25 ft 19 kts 322°
2026-05-04 11:38 34.42988 135.23424 24 ft 21 kts 237°
2026-05-04 11:38 34.43053 135.23276 28 ft 22 kts 324°
2026-05-04 11:38 34.43173 135.23145 30 ft 24 kts 318°
2026-05-04 11:38 34.43304 135.23006 34 ft 26 kts 319°
2026-05-04 11:39 34.43456 135.22878 34 ft 28 kts 323°
2026-05-04 11:39 34.43584 135.22747 34 ft 10 kts 321°
2026-05-04 11:40 34.44074 135.22775 34 ft 21 kts 51°
2026-05-04 11:41 34.44168 135.22916 34 ft 22 kts 51°
2026-05-04 11:41 34.44268 135.23066 34 ft 24 kts 51°
2026-05-04 11:41 34.44378 135.23230 34 ft 27 kts 51°
2026-05-04 11:41 34.44502 135.23414 34 ft 29 kts 51°
2026-05-04 11:42 34.44633 135.23607 35 ft 30 kts 50°
2026-05-04 11:42 34.44771 135.23810 36 ft 32 kts 50°
2026-05-04 11:42 34.44887 135.23984 37 ft 0 kts 54°
2026-05-04 11:42 34.44889 135.23988 37 ft 5 kts 54°
2026-05-04 11:43 34.44955 135.24075 37 ft 16 kts 15°
2026-05-04 11:43 34.45061 135.24040 37 ft 18 kts 323°
2026-05-04 11:43 34.45063 135.23909 37 ft 16 kts 228°
2026-05-04 11:43 34.45056 135.23897 37 ft 3 kts 233°
2026-05-04 11:44 34.45055 135.23895 37 ft 0 kts 233°
2026-05-04 11:44 34.45053 135.23892 37 ft 2 kts 233°
2026-05-04 11:45 34.44932 135.23695 37 ft 68 kts 231°
2026-05-04 11:45 34.44463 135.23003 35 ft 144 kts 231°
2026-05-04 11:45 34.43699 135.21857 51 ft 205 kts 231°
2026-05-04 11:45 34.42865 135.20611 1468 ft 179 kts 235°
2026-05-04 11:46 34.42246 135.19350 2896 ft 172 kts 243°
2026-05-04 11:46 34.41772 135.18051 3976 ft 159 kts 251°
2026-05-04 11:46 34.41491 135.16864 4970 ft 136 kts 261°
2026-05-04 11:46 34.41355 135.15559 5580 ft 183 kts 268°
2026-05-04 11:47 34.41369 135.13886 5906 ft 210 kts 275°
2026-05-04 11:47 34.41575 135.12075 6440 ft 224 kts 282°
2026-05-04 11:47 34.41980 135.10205 7053 ft 234 kts 288°
2026-05-04 11:47 34.42570 135.08366 7727 ft 241 kts 294°
2026-05-04 11:48 34.43358 135.06539 8462 ft 247 kts 299°
2026-05-04 11:48 34.44323 135.04796 9252 ft 251 kts 304°
2026-05-04 11:48 34.45450 135.03165 10058 ft 255 kts 309°
2026-05-04 11:48 34.46283 135.02153 10549 ft 257 kts 313°